K7JKM Weather Reports


time (UTC)temp
C
wind
direction
speed
KPH
gust
KPH
rain 1hr
cm
rain 24hr
cm
rain mn
cm
humidity
%
barometer
mb
20260904171512 14 303 0.0 0.0 0.00 1.09 0.30 76 1012.9
20260904170032 14 347 0.0 0.0 0.00 1.27 0.30 75 1012.9
20260904164532 13 284 0.0 0.0 0.00 1.32 0.30 78 1012.8
20260904163031 13 284 0.0 0.0 0.00 1.32 0.30 80 1012.8
20260904161533 13 284 0.0 0.0 0.00 1.32 0.30 80 1012.8
20260904160024 13 283 0.0 0.0 0.03 1.32 0.30 80 1012.7
20260904154518 13 283 0.0 0.0 0.03 1.32 0.30 81 1012.6
20260904153021 12 284 0.0 0.0 0.03 1.32 0.30 81 1012.6
20260904151507 12 297 0.0 0.0 0.03 1.32 0.30 81 1012.5
20260904150016 12 289 0.0 0.0 0.00 1.30 0.28 81 1012.5
20260904144502 12 283 0.0 0.0 0.00 1.30 0.28 81 1012.2
20260904143009 12 282 0.0 0.0 0.00 1.30 0.28 81 1012.2
20260904141507 12 282 0.0 0.0 0.00 1.32 0.28 81 1011.8
20260904140011 11 122 0.0 0.0 0.00 1.32 0.28 81 1011.7
20260904134510 12 122 0.0 0.0 0.00 1.40 0.28 80 1011.4
20260904133015 12 123 0.0 0.0 0.00 1.45 0.28 81 1011.2
20260904131510 11 122 0.0 0.0 0.00 1.47 0.28 80 1011.1
20260904130012 11 123 0.0 0.0 0.00 1.52 0.28 80 1011.1
20260904124513 12 122 0.0 0.0 0.00 1.52 0.28 80 1010.9
20260904123015 12 123 0.0 0.0 0.00 1.52 0.28 80 1010.9
20260904121515 12 123 0.0 0.0 0.00 1.52 0.28 80 1010.9
20260904120016 12 122 0.0 0.0 0.00 1.52 0.28 80 1010.8
20260904114516 11 123 0.0 0.0 0.00 1.52 0.28 80 1010.7
20260904113020 11 123 0.0 0.0 0.03 1.52 0.28 80 1010.6
20260904111518 11 123 0.0 0.0 0.05 1.52 0.28 80 1010.4
20260904110017 11 122 0.0 0.0 0.08 1.52 0.28 80 1010.3
20260904104520 11 132 0.0 0.0 0.08 1.52 0.28 80 1010.3
20260904103018 11 132 0.0 0.0 0.05 1.47 0.25 80 1010.3
20260904101520 11 132 0.0 0.0 0.05 1.47 0.23 80 1010.4
20260904100024 11 132 0.0 0.0 0.05 1.45 0.20 80 1010.4
20260904094523 12 132 0.0 0.0 0.10 1.45 0.20 80 1010.2
20260904093025 12 132 0.0 0.0 0.18 1.45 0.20 80 1010.2
20260904091524 12 132 0.0 0.0 0.18 1.42 0.18 80 1010.4
20260904090023 12 132 0.0 0.0 0.15 1.40 0.15 80 1010.4
20260904084527 12 132 0.0 0.0 0.10 1.32 0.10 80 1010.3
20260904083006 12 132 0.0 0.0 0.03 1.27 0.03 80 1010.4
20260904081506 12 132 0.0 0.0 0.00 1.24 0.00 80 1010.4
20260904080004 12 132 0.0 0.0 0.00 1.24 0.00 79 1010.3
20260904074510 12 132 0.0 0.0 0.03 1.24 0.00 79 1010.2
20260904073007 12 132 0.0 0.0 0.03 1.24 0.00 79 1010.2
20260904071502 12 132 0.0 0.0 0.03 1.24 0.00 79 1010.3
20260904070012 12 132 0.0 0.0 0.03 1.24 0.00 79 1010.1
20260904064515 12 132 0.0 0.0 0.00 1.24 1.22 79 1010.1
20260904063008 12 132 0.0 0.0 0.00 1.27 1.22 78 1010.2
20260904061505 12 132 0.0 0.0 0.00 1.27 1.22 78 1010.2
20260904060009 12 132 0.0 0.0 0.00 1.27 1.22 78 1010.1
20260904054510 12 132 0.0 0.0 0.00 1.32 1.22 78 1010.2
20260904053006 12 132 0.0 0.0 0.00 1.45 1.22 77 1010.2
20260904051517 12 132 0.0 0.0 0.00 1.47 1.22 76 1010.2
20260904050013 12 132 0.0 0.0 0.00 1.55 1.22 76 1010.3
20260904044510 12 132 0.0 0.0 0.00 1.55 1.22 74 1010.3
20260904043007 12 132 0.0 0.0 0.03 1.55 1.22 73 1010.2
20260904041507 12 132 0.0 0.0 0.05 1.55 1.22 72 1010.1
20260904040003 12 134 0.0 0.0 0.08 1.55 1.22 71 1010.2
20260904034504 12 120 0.0 4.8 0.10 1.55 1.22 71 1010.1
20260904033027 12 113 0.0 3.2 0.08 1.52 1.19 71 1010.0
20260904031523 12 108 0.0 6.4 0.08 1.47 1.17 71 1010.0
20260904030018 13 111 0.0 3.2 0.05 1.47 1.14 70 1010.1
20260904024514 13 120 0.0 3.2 0.05 1.45 1.12 70 1010.0
20260904023011 13 117 0.0 3.2 0.05 1.45 1.12 69 1009.9
20260904021512 13 126 0.0 0.0 0.05 1.42 1.09 69 1009.9
20260904020004 13 152 0.0 1.6 0.05 1.42 1.09 68 1009.9
20260904014540 13 139 0.0 3.2 0.03 1.40 1.07 66 1009.8
20260904013027 13 137 0.0 9.7 0.03 1.40 1.07 66 1009.8
20260904011522 15 143 0.0 6.4 0.00 1.37 1.04 67 1009.8
20260904010016 15 127 0.0 4.8 0.00 1.37 1.04 67 1009.7
20260904004513 15 120 1.6 6.4 0.00 1.37 1.04 67 1009.8
20260904003012 14 120 0.0 4.8 0.00 1.40 1.04 67 1009.8
20260904001507 15 128 0.0 3.2 0.00 1.40 1.04 68 1010.0
20260904000032 15 121 0.0 3.2 0.05 1.40 1.04 66 1010.1
20260903234527 14 117 0.0 4.8 0.10 1.42 1.04 67 1009.9
20260903233027 14 95 0.0 4.8 0.10 1.42 1.04 68 1010.0
20260903231520 13 125 0.0 1.6 0.10 1.42 1.04 68 1010.2
20260903230019 13 112 0.0 0.0 0.05 1.37 0.99 68 1010.3
20260903224517 13 96 0.0 0.0 0.05 1.52 0.94 68 1010.4
20260903223011 13 172 0.0 3.2 0.18 1.65 0.94 68 1010.4
20260903221531 13 122 0.0 0.0 0.28 1.73 0.94 71 1010.3
20260903220040 12 122 0.0 1.6 0.28 1.80 0.94 71 1010.4
20260903214536 12 94 0.0 4.8 0.25 1.78 0.89 69 1010.8
20260903213003 12 151 0.0 3.2 0.13 1.68 0.76 68 1010.8
20260903211503 13 272 0.0 3.2 0.08 1.63 0.66 67 1010.7
20260903210004 12 225 0.0 1.6 0.08 1.65 0.66 68 1010.5
20260903204503 13 233 0.0 1.6 0.08 1.68 0.64 67 1010.7
20260903203014 13 91 0.0 1.6 0.08 1.68 0.64 67 1010.9
20260903201511 14 122 0.0 6.4 0.03 1.63 0.58 66 1010.7
20260903200006 14 125 0.0 4.8 0.03 1.63 0.58 66 1010.7
20260903194506 15 129 0.0 8.0 0.00 1.60 0.56 65 1010.7
20260903193004 15 105 0.0 16.1 0.00 1.63 0.56 64 1010.6
20260903191503 15 89 0.0 9.7 0.00 1.68 0.56 64 1010.7
20260903190004 15 110 0.0 9.7 0.00 1.70 0.56 67 1010.7
20260903184516 15 174 1.6 6.4 0.00 1.75 0.56 67 1010.6
20260903183016 14 160 1.6 4.8 0.00 1.80 0.56 68 1010.6
20260903181512 15 131 1.6 9.7 0.10 1.93 0.56 67 1010.7
20260903180010 15 179 0.0 6.4 0.28 2.01 0.56 68 1010.4
20260903174505 14 121 1.6 8.0 0.33 2.01 0.56 74 1010.6
20260903173006 13 124 0.0 3.2 0.33 2.03 0.56 70 1010.6